| time (UTC) | temp F | wind direction | speed MPH | gust MPH | rain 1hr in | rain 24hr in | rain mn in | humidity % | barometer mb |
| 20260506215503 | 47 | 97 | 6.0 | 8.0 | 0.00 | 0.09 | 0.00 | 84 | 1027.9 |
| 20260506215004 | 47 | 97 | 4.0 | 8.0 | 0.00 | 0.09 | 0.00 | 84 | 1028.0 |
| 20260506214504 | 47 | 98 | 4.0 | 8.0 | 0.00 | 0.09 | 0.00 | 84 | 1027.7 |
| 20260506214004 | 47 | 104 | 4.0 | 6.0 | 0.00 | 0.09 | 0.00 | 83 | 1027.8 |
| 20260506213503 | 47 | 111 | 3.0 | 5.0 | 0.00 | 0.09 | 0.00 | 83 | 1027.8 |
| 20260506213004 | 47 | 114 | 2.0 | 5.0 | 0.00 | 0.09 | 0.00 | 83 | 1027.6 |
| 20260506212503 | 47 | 116 | 2.0 | 5.0 | 0.00 | 0.09 | 0.00 | 82 | 1027.6 |
| 20260506212024 | 48 | 119 | 1.0 | 4.0 | 0.00 | 0.09 | 0.00 | 81 | 1027.5 |
| 20260506211503 | 48 | 128 | 1.0 | 3.0 | 0.00 | 0.09 | 0.00 | 81 | 1027.5 |
| 20260506211004 | 48 | 133 | 0.0 | 3.0 | 0.00 | 0.09 | 0.00 | 80 | 1027.3 |
| 20260506210504 | 49 | 184 | 0.0 | 3.0 | 0.00 | 0.09 | 0.00 | 81 | 1027.3 |
| 20260506210004 | 49 | 189 | 0.0 | 3.0 | 0.00 | 0.09 | 0.00 | 80 | 1027.2 |
| 20260506205504 | 49 | 180 | 0.0 | 3.0 | 0.00 | 0.09 | 0.00 | 80 | 1027.2 |
| 20260506205003 | 49 | 183 | 0.0 | 3.0 | 0.00 | 0.09 | 0.00 | 80 | 1027.2 |
| 20260506204503 | 49 | 200 | 0.0 | 1.0 | 0.00 | 0.09 | 0.00 | 79 | 1027.1 |
| 20260506204003 | 50 | 164 | 1.0 | 3.0 | 0.00 | 0.09 | 0.00 | 79 | 1027.1 |
| 20260506203503 | 50 | 173 | 2.0 | 6.0 | 0.00 | 0.09 | 0.00 | 79 | 1027.1 |
| 20260506203025 | 50 | 171 | 2.0 | 6.0 | 0.00 | 0.09 | 0.00 | 78 | 1027.1 |
| 20260506202503 | 50 | 173 | 2.0 | 6.0 | 0.00 | 0.09 | 0.00 | 78 | 1027.0 |
| 20260506202004 | 50 | 179 | 3.0 | 9.0 | 0.00 | 0.09 | 0.00 | 78 | 1026.9 |
| 20260506201504 | 51 | 179 | 3.0 | 11.0 | 0.00 | 0.09 | 0.00 | 78 | 1026.8 |
| 20260506201024 | 51 | 180 | 3.0 | 11.0 | 0.00 | 0.09 | 0.00 | 78 | 1026.8 |
| 20260506200503 | 51 | 181 | 2.0 | 9.0 | 0.00 | 0.09 | 0.00 | 78 | 1026.8 |
| 20260506200025 | 50 | 175 | 1.0 | 9.0 | 0.00 | 0.09 | 0.00 | 79 | 1026.8 |
| 20260506195503 | 50 | 172 | 1.0 | 6.0 | 0.00 | 0.09 | 0.00 | 78 | 1026.7 |
| 20260506195003 | 50 | 178 | 1.0 | 5.0 | 0.00 | 0.09 | 0.00 | 78 | 1026.7 |
| 20260506194503 | 50 | 176 | 1.0 | 9.0 | 0.00 | 0.09 | 0.00 | 77 | 1026.5 |
| 20260506194004 | 50 | 177 | 1.0 | 9.0 | 0.00 | 0.09 | 0.00 | 77 | 1026.5 |
| 20260506193504 | 50 | 172 | 1.0 | 3.0 | 0.00 | 0.09 | 0.00 | 76 | 1026.5 |
| 20260506193004 | 51 | 185 | 1.0 | 8.0 | 0.00 | 0.09 | 0.00 | 75 | 1026.5 |
| 20260506192504 | 51 | 185 | 1.0 | 8.0 | 0.00 | 0.09 | 0.00 | 75 | 1026.5 |
| 20260506192003 | 51 | 186 | 1.0 | 3.0 | 0.00 | 0.09 | 0.00 | 73 | 1026.4 |
| 20260506191525 | 52 | 186 | 1.0 | 8.0 | 0.00 | 0.09 | 0.00 | 73 | 1026.4 |
| 20260506191004 | 52 | 187 | 2.0 | 8.0 | 0.00 | 0.09 | 0.00 | 72 | 1026.3 |
| 20260506190503 | 53 | 176 | 4.0 | 8.0 | 0.00 | 0.09 | 0.00 | 72 | 1026.3 |
| 20260506190004 | 53 | 179 | 5.0 | 10.0 | 0.00 | 0.09 | 0.00 | 72 | 1026.2 |
| 20260506185503 | 53 | 185 | 5.0 | 15.0 | 0.00 | 0.09 | 0.00 | 72 | 1026.1 |
| 20260506185003 | 53 | 184 | 5.0 | 15.0 | 0.00 | 0.09 | 0.00 | 72 | 1026.2 |
| 20260506184524 | 53 | 182 | 5.0 | 13.0 | 0.00 | 0.09 | 0.00 | 72 | 1026.1 |
| 20260506184003 | 53 | 182 | 4.0 | 11.0 | 0.00 | 0.09 | 0.00 | 71 | 1026.0 |
| 20260506183504 | 53 | 179 | 5.0 | 13.0 | 0.00 | 0.09 | 0.00 | 71 | 1025.9 |
| 20260506183004 | 53 | 182 | 5.0 | 15.0 | 0.00 | 0.09 | 0.00 | 71 | 1025.9 |
| 20260506182504 | 53 | 184 | 5.0 | 15.0 | 0.00 | 0.09 | 0.00 | 70 | 1025.9 |
| 20260506182025 | 53 | 184 | 4.0 | 13.0 | 0.00 | 0.09 | 0.00 | 70 | 1025.8 |
| 20260506181503 | 53 | 183 | 4.0 | 13.0 | 0.00 | 0.09 | 0.00 | 70 | 1025.8 |
| 20260506181004 | 53 | 180 | 4.0 | 9.0 | 0.00 | 0.09 | 0.00 | 70 | 1025.7 |
| 20260506180504 | 53 | 178 | 3.0 | 11.0 | 0.00 | 0.09 | 0.00 | 70 | 1025.8 |
| 20260506180024 | 53 | 179 | 3.0 | 14.0 | 0.00 | 0.09 | 0.00 | 70 | 1025.8 |
| 20260506175524 | 53 | 180 | 4.0 | 14.0 | 0.00 | 0.09 | 0.00 | 70 | 1025.8 |
| 20260506175004 | 53 | 181 | 5.0 | 13.0 | 0.00 | 0.09 | 0.00 | 71 | 1025.8 |
| 20260506174503 | 53 | 179 | 3.0 | 17.0 | 0.00 | 0.09 | 0.00 | 72 | 1025.9 |
| 20260506174003 | 52 | 177 | 1.0 | 17.0 | 0.00 | 0.09 | 0.00 | 72 | 1025.8 |
| 20260506173504 | 52 | 181 | 0.0 | 8.0 | 0.00 | 0.09 | 0.00 | 73 | 1025.9 |
| 20260506173003 | 52 | 0 | 0.0 | 0.0 | 0.00 | 0.09 | 0.00 | 73 | 1025.9 |
| 20260506172504 | 52 | 0 | 0.0 | 0.0 | 0.00 | 0.09 | 0.00 | 73 | 1025.8 |
| 20260506172003 | 52 | 164 | 1.0 | 5.0 | 0.00 | 0.09 | 0.00 | 73 | 1025.8 |
| 20260506171504 | 52 | 169 | 2.0 | 5.0 | 0.00 | 0.09 | 0.00 | 73 | 1025.9 |
| 20260506171004 | 51 | 170 | 2.0 | 9.0 | 0.00 | 0.09 | 0.00 | 72 | 1025.9 |
| 20260506170503 | 52 | 171 | 3.0 | 9.0 | 0.00 | 0.09 | 0.00 | 72 | 1026.0 |
| 20260506170004 | 52 | 179 | 3.0 | 9.0 | 0.00 | 0.09 | 0.00 | 72 | 1026.0 |
| 20260506165504 | 52 | 185 | 4.0 | 9.0 | 0.00 | 0.09 | 0.00 | 72 | 1026.0 |
| 20260506165004 | 52 | 182 | 4.0 | 9.0 | 0.00 | 0.09 | 0.00 | 71 | 1026.0 |
| 20260506164503 | 52 | 183 | 4.0 | 9.0 | 0.00 | 0.09 | 0.00 | 71 | 1026.0 |
| 20260506164004 | 52 | 188 | 4.0 | 9.0 | 0.00 | 0.09 | 0.00 | 70 | 1026.0 |
| 20260506163504 | 53 | 188 | 5.0 | 9.0 | 0.00 | 0.09 | 0.00 | 69 | 1026.0 |
| 20260506163004 | 53 | 186 | 6.0 | 13.0 | 0.00 | 0.09 | 0.00 | 68 | 1026.0 |
| 20260506162504 | 54 | 191 | 6.0 | 13.0 | 0.00 | 0.09 | 0.00 | 68 | 1026.0 |
| 20260506162004 | 54 | 195 | 6.0 | 15.0 | 0.00 | 0.09 | 0.00 | 67 | 1026.0 |
| 20260506161504 | 54 | 191 | 7.0 | 15.0 | 0.00 | 0.09 | 0.00 | 67 | 1025.8 |
| 20260506161004 | 54 | 188 | 8.0 | 15.0 | 0.00 | 0.09 | 0.00 | 66 | 1025.8 |
| 20260506160525 | 55 | 189 | 9.0 | 15.0 | 0.00 | 0.09 | 0.00 | 65 | 1025.8 |
| 20260506160004 | 55 | 190 | 9.0 | 18.0 | 0.00 | 0.09 | 0.00 | 65 | 1025.8 |
| 20260506155504 | 55 | 192 | 8.0 | 18.0 | 0.00 | 0.09 | 0.00 | 64 | 1025.7 |
| 20260506155004 | 55 | 192 | 6.0 | 17.0 | 0.00 | 0.09 | 0.00 | 64 | 1025.8 |
| 20260506154525 | 55 | 188 | 5.0 | 17.0 | 0.00 | 0.09 | 0.00 | 64 | 1025.8 |
| 20260506154004 | 55 | 188 | 5.0 | 11.0 | 0.00 | 0.09 | 0.00 | 64 | 1025.8 |
| 20260506153504 | 55 | 190 | 5.0 | 11.0 | 0.00 | 0.09 | 0.00 | 64 | 1025.7 |
| 20260506153004 | 55 | 194 | 6.0 | 11.0 | 0.00 | 0.09 | 0.00 | 63 | 1025.7 |
| 20260506152504 | 55 | 192 | 6.0 | 11.0 | 0.00 | 0.09 | 0.00 | 64 | 1025.7 |
| 20260506152004 | 55 | 194 | 6.0 | 11.0 | 0.00 | 0.09 | 0.00 | 64 | 1025.8 |
| 20260506151504 | 55 | 192 | 7.0 | 17.0 | 0.00 | 0.09 | 0.00 | 63 | 1025.8 |
| 20260506151004 | 55 | 185 | 7.0 | 17.0 | 0.00 | 0.09 | 0.00 | 64 | 1025.7 |
| 20260506150504 | 55 | 186 | 7.0 | 24.0 | 0.00 | 0.09 | 0.00 | 63 | 1025.7 |
| 20260506150004 | 55 | 186 | 7.0 | 24.0 | 0.00 | 0.09 | 0.00 | 65 | 1025.7 |
| 20260506145504 | 55 | 187 | 9.0 | 17.0 | 0.00 | 0.09 | 0.00 | 66 | 1025.7 |
| 20260506145004 | 55 | 198 | 8.0 | 24.0 | 0.00 | 0.09 | 0.00 | 65 | 1025.7 |
| 20260506144504 | 55 | 203 | 6.0 | 24.0 | 0.00 | 0.09 | 0.00 | 66 | 1025.7 |
| 20260506144004 | 55 | 193 | 6.0 | 13.0 | 0.00 | 0.09 | 0.00 | 67 | 1025.6 |
| 20260506143504 | 55 | 181 | 6.0 | 17.0 | 0.00 | 0.09 | 0.00 | 68 | 1025.6 |
| 20260506143005 | 55 | 176 | 7.0 | 17.0 | 0.00 | 0.09 | 0.00 | 67 | 1025.6 |
| 20260506142504 | 55 | 183 | 8.0 | 15.0 | 0.00 | 0.09 | 0.09 | 67 | 1025.5 |
| 20260506142004 | 55 | 190 | 9.0 | 23.0 | 0.00 | 0.09 | 0.09 | 67 | 1025.5 |
| 20260506141525 | 55 | 188 | 9.0 | 23.0 | 0.00 | 0.09 | 0.09 | 67 | 1025.5 |
| 20260506141004 | 55 | 191 | 8.0 | 20.0 | 0.00 | 0.09 | 0.09 | 68 | 1025.5 |
| 20260506140504 | 55 | 193 | 8.0 | 20.0 | 0.00 | 0.09 | 0.09 | 68 | 1025.5 |
| 20260506140004 | 55 | 189 | 8.0 | 17.0 | 0.00 | 0.09 | 0.09 | 68 | 1025.4 |
| 20260506135525 | 55 | 187 | 8.0 | 17.0 | 0.00 | 0.09 | 0.09 | 69 | 1025.3 |
| 20260506135004 | 55 | 184 | 8.0 | 17.0 | 0.00 | 0.09 | 0.09 | 69 | 1025.2 |
| 20260506134504 | 55 | 183 | 8.0 | 17.0 | 0.00 | 0.09 | 0.09 | 69 | 1025.2 |
| 20260506134004 | 55 | 182 | 8.0 | 20.0 | 0.00 | 0.09 | 0.09 | 70 | 1025.2 |
| 20260506133525 | 55 | 180 | 8.0 | 20.0 | 0.00 | 0.09 | 0.09 | 69 | 1025.2 |
| 20260506133004 | 56 | 181 | 8.0 | 18.0 | 0.00 | 0.09 | 0.09 | 70 | 1025.1 |
| 20260506132504 | 56 | 183 | 8.0 | 18.0 | 0.00 | 0.09 | 0.09 | 70 | 1025.1 |
| 20260506132004 | 56 | 188 | 8.0 | 17.0 | 0.00 | 0.09 | 0.09 | 70 | 1025.0 |
| 20260506131504 | 56 | 193 | 8.0 | 14.0 | 0.00 | 0.09 | 0.09 | 70 | 1025.0 |
| 20260506131004 | 56 | 190 | 8.0 | 14.0 | 0.00 | 0.09 | 0.09 | 70 | 1025.0 |
| 20260506130504 | 56 | 191 | 8.0 | 19.0 | 0.00 | 0.09 | 0.09 | 70 | 1024.9 |
| 20260506130025 | 56 | 196 | 8.0 | 19.0 | 0.00 | 0.09 | 0.09 | 71 | 1024.9 |
| 20260506125525 | 56 | 194 | 8.0 | 19.0 | 0.00 | 0.09 | 0.09 | 72 | 1024.8 |
| 20260506125004 | 56 | 190 | 8.0 | 14.0 | 0.00 | 0.09 | 0.09 | 72 | 1024.8 |
| 20260506124504 | 56 | 187 | 8.0 | 15.0 | 0.00 | 0.09 | 0.09 | 72 | 1024.8 |
| 20260506124004 | 56 | 186 | 8.0 | 15.0 | 0.00 | 0.09 | 0.09 | 71 | 1024.7 |
| 20260506123504 | 57 | 188 | 8.0 | 18.0 | 0.00 | 0.09 | 0.09 | 72 | 1024.7 |
| 20260506123004 | 56 | 187 | 8.0 | 18.0 | 0.00 | 0.09 | 0.09 | 72 | 1024.6 |
| 20260506122504 | 57 | 184 | 8.0 | 17.0 | 0.00 | 0.09 | 0.09 | 73 | 1024.6 |
| 20260506122004 | 57 | 188 | 8.0 | 17.0 | 0.00 | 0.09 | 0.09 | 74 | 1024.6 |
| 20260506121504 | 57 | 192 | 9.0 | 19.0 | 0.00 | 0.09 | 0.09 | 75 | 1024.6 |
| 20260506121004 | 57 | 187 | 8.0 | 19.0 | 0.00 | 0.09 | 0.09 | 75 | 1024.4 |
| 20260506120525 | 57 | 186 | 8.0 | 18.0 | 0.00 | 0.09 | 0.09 | 76 | 1024.4 |
| 20260506120004 | 56 | 188 | 8.0 | 17.0 | 0.00 | 0.09 | 0.09 | 78 | 1024.3 |
| 20260506115504 | 56 | 187 | 7.0 | 18.0 | 0.00 | 0.09 | 0.09 | 79 | 1024.4 |
| 20260506115004 | 56 | 188 | 7.0 | 18.0 | 0.00 | 0.09 | 0.09 | 79 | 1024.3 |
| 20260506114504 | 57 | 192 | 7.0 | 15.0 | 0.00 | 0.09 | 0.09 | 79 | 1024.3 |
| 20260506114004 | 57 | 198 | 8.0 | 15.0 | 0.00 | 0.09 | 0.09 | 80 | 1024.3 |
| 20260506113503 | 57 | 197 | 8.0 | 15.0 | 0.00 | 0.09 | 0.09 | 80 | 1024.2 |
| 20260506113004 | 57 | 196 | 7.0 | 15.0 | 0.00 | 0.09 | 0.09 | 80 | 1024.1 |
| 20260506112503 | 57 | 200 | 7.0 | 14.0 | 0.00 | 0.09 | 0.09 | 81 | 1024.1 |
| 20260506112004 | 56 | 197 | 7.0 | 15.0 | 0.00 | 0.09 | 0.09 | 82 | 1024.1 |
| 20260506111503 | 56 | 191 | 7.0 | 17.0 | 0.00 | 0.09 | 0.09 | 82 | 1024.0 |
| 20260506111003 | 56 | 190 | 8.0 | 17.0 | 0.00 | 0.09 | 0.09 | 82 | 1023.9 |
| 20260506110525 | 57 | 193 | 8.0 | 17.0 | 0.00 | 0.09 | 0.09 | 82 | 1023.9 |
| 20260506110004 | 57 | 194 | 7.0 | 17.0 | 0.00 | 0.09 | 0.09 | 83 | 1023.8 |
| 20260506105505 | 56 | 194 | 6.0 | 17.0 | 0.00 | 0.09 | 0.09 | 83 | 1023.8 |
| 20260506105004 | 57 | 196 | 6.0 | 15.0 | 0.00 | 0.09 | 0.09 | 83 | 1023.7 |
| 20260506104504 | 57 | 200 | 6.0 | 15.0 | 0.00 | 0.09 | 0.09 | 83 | 1023.7 |
| 20260506104004 | 57 | 200 | 6.0 | 13.0 | 0.00 | 0.09 | 0.09 | 84 | 1023.6 |
| 20260506103525 | 57 | 194 | 6.0 | 13.0 | 0.00 | 0.09 | 0.09 | 84 | 1023.5 |
| 20260506103004 | 57 | 188 | 6.0 | 17.0 | 0.00 | 0.09 | 0.09 | 84 | 1023.5 |
| 20260506102504 | 57 | 188 | 7.0 | 17.0 | 0.00 | 0.09 | 0.09 | 84 | 1023.4 |
| 20260506102004 | 58 | 186 | 8.0 | 17.0 | 0.00 | 0.09 | 0.09 | 84 | 1023.2 |
| 20260506101504 | 58 | 190 | 9.0 | 17.0 | 0.00 | 0.09 | 0.09 | 84 | 1023.2 |
| 20260506101004 | 58 | 194 | 9.0 | 18.0 | 0.00 | 0.09 | 0.09 | 84 | 1023.2 |
| 20260506100525 | 58 | 194 | 9.0 | 23.0 | 0.00 | 0.09 | 0.09 | 84 | 1023.2 |
| 20260506100025 | 58 | 197 | 9.0 | 23.0 | 0.00 | 0.09 | 0.09 | 84 | 1023.1 |
| 20260506095525 | 58 | 202 | 10.0 | 23.0 | 0.00 | 0.09 | 0.09 | 84 | 1023.0 |
| 20260506095004 | 59 | 206 | 10.0 | 23.0 | 0.00 | 0.09 | 0.09 | 85 | 1022.9 |
| 20260506094504 | 59 | 208 | 8.0 | 19.0 | 0.01 | 0.09 | 0.09 | 85 | 1022.8 |
| 20260506094003 | 59 | 208 | 7.0 | 19.0 | 0.01 | 0.09 | 0.09 | 85 | 1022.7 |
| 20260506093504 | 59 | 206 | 7.0 | 15.0 | 0.01 | 0.09 | 0.09 | 86 | 1022.6 |
| 20260506093004 | 59 | 205 | 7.0 | 11.0 | 0.01 | 0.09 | 0.09 | 86 | 1022.5 |
| 20260506092504 | 59 | 209 | 8.0 | 17.0 | 0.01 | 0.09 | 0.09 | 85 | 1022.4 |
| 20260506092004 | 59 | 210 | 7.0 | 17.0 | 0.01 | 0.09 | 0.09 | 85 | 1022.4 |
| 20260506091504 | 59 | 206 | 6.0 | 14.0 | 0.01 | 0.09 | 0.09 | 85 | 1022.4 |
| 20260506091003 | 59 | 202 | 5.0 | 13.0 | 0.01 | 0.09 | 0.09 | 85 | 1022.3 |
| 20260506090504 | 59 | 206 | 6.0 | 10.0 | 0.01 | 0.09 | 0.09 | 85 | 1022.2 |
| 20260506090004 | 59 | 206 | 6.0 | 11.0 | 0.01 | 0.09 | 0.09 | 85 | 1022.2 |
| 20260506085503 | 60 | 206 | 6.0 | 11.0 | 0.01 | 0.09 | 0.09 | 85 | 1022.1 |
| 20260506085004 | 60 | 209 | 5.0 | 11.0 | 0.01 | 0.09 | 0.09 | 84 | 1022.0 |
| 20260506084504 | 60 | 207 | 7.0 | 11.0 | 0.00 | 0.09 | 0.09 | 84 | 1022.0 |
| 20260506084024 | 60 | 214 | 8.0 | 15.0 | 0.00 | 0.09 | 0.09 | 82 | 1021.9 |
| 20260506083503 | 60 | 232 | 7.0 | 18.0 | 0.00 | 0.09 | 0.09 | 81 | 1021.9 |
| 20260506083004 | 61 | 240 | 5.0 | 18.0 | 0.00 | 0.09 | 0.09 | 79 | 1021.8 |
| 20260506082504 | 61 | 235 | 4.0 | 9.0 | 0.00 | 0.09 | 0.09 | 76 | 1021.6 |
| 20260506082004 | 61 | 231 | 4.0 | 9.0 | 0.00 | 0.09 | 0.09 | 76 | 1021.5 |
| 20260506081504 | 61 | 226 | 5.0 | 9.0 | 0.00 | 0.09 | 0.09 | 76 | 1021.4 |
| 20260506081004 | 61 | 216 | 6.0 | 10.0 | 0.00 | 0.09 | 0.09 | 75 | 1021.5 |
| 20260506080503 | 61 | 216 | 6.0 | 10.0 | 0.00 | 0.09 | 0.09 | 75 | 1021.4 |
| 20260506073503 | 62 | 227 | 8.0 | 17.0 | 0.00 | 0.09 | 0.09 | 72 | 1021.2 |
| 20260506073024 | 63 | 235 | 8.0 | 17.0 | 0.00 | 0.09 | 0.09 | 72 | 1021.2 |
| 20260506072504 | 63 | 232 | 8.0 | 17.0 | 0.00 | 0.09 | 0.09 | 72 | 1021.1 |
| 20260506072004 | 64 | 227 | 8.0 | 14.0 | 0.00 | 0.09 | 0.09 | 72 | 1021.1 |
| 20260506071503 | 64 | 224 | 9.0 | 15.0 | 0.00 | 0.09 | 0.09 | 73 | 1021.1 |
| 20260506071004 | 63 | 224 | 9.0 | 15.0 | 0.00 | 0.09 | 0.09 | 73 | 1021.1 |
| 20260506070504 | 63 | 226 | 11.0 | 18.0 | 0.00 | 0.09 | 0.09 | 73 | 1021.1 |
| 20260506062003 | 64 | 223 | 9.0 | 20.0 | 0.00 | 0.09 | 0.09 | 75 | 1020.9 |
| 20260506061503 | 64 | 222 | 8.0 | 20.0 | 0.00 | 0.09 | 0.09 | 75 | 1020.9 |
| 20260506061004 | 64 | 225 | 9.0 | 15.0 | 0.01 | 0.09 | 0.09 | 78 | 1020.8 |
| 20260506060504 | 63 | 234 | 9.0 | 15.0 | 0.01 | 0.09 | 0.09 | 81 | 1020.8 |
| 20260506051003 | 62 | 222 | 10.0 | 20.0 | 0.00 | 0.08 | 0.08 | 85 | 1020.7 |
| 20260506050503 | 62 | 235 | 9.0 | 19.0 | 0.00 | 0.08 | 0.08 | 86 | 1020.6 |
| 20260506045025 | 62 | 228 | 9.0 | 20.0 | 0.00 | 0.08 | 0.08 | 85 | 1020.6 |
| 20260506044503 | 61 | 232 | 9.0 | 20.0 | 0.00 | 0.08 | 0.08 | 85 | 1020.6 |
| 20260506044004 | 62 | 235 | 10.0 | 15.0 | 0.00 | 0.08 | 0.08 | 84 | 1020.7 |
| 20260506043504 | 62 | 244 | 12.0 | 19.0 | 0.00 | 0.08 | 0.08 | 85 | 1020.6 |
| 20260506043004 | 61 | 245 | 11.0 | 24.0 | 0.01 | 0.08 | 0.08 | 85 | 1020.5 |
| 20260506042504 | 61 | 244 | 9.0 | 24.0 | 0.02 | 0.08 | 0.08 | 86 | 1020.6 |
| 20260506042004 | 61 | 248 | 8.0 | 18.0 | 0.04 | 0.08 | 0.08 | 88 | 1020.7 |
| 20260506041504 | 61 | 247 | 8.0 | 13.0 | 0.04 | 0.08 | 0.08 | 89 | 1020.6 |
| 20260506041026 | 61 | 239 | 8.0 | 14.0 | 0.04 | 0.08 | 0.08 | 89 | 1020.5 |
| 20260506040504 | 61 | 232 | 10.0 | 19.0 | 0.04 | 0.08 | 0.08 | 89 | 1020.7 |
| 20260506040004 | 61 | 241 | 12.0 | 19.0 | 0.04 | 0.08 | 0.08 | 89 | 1020.8 |
| 20260506035504 | 61 | 243 | 11.0 | 20.0 | 0.04 | 0.08 | 0.08 | 89 | 1020.8 |
| 20260506035004 | 60 | 241 | 9.0 | 23.0 | 0.04 | 0.08 | 0.08 | 89 | 1020.9 |
| 20260506034504 | 60 | 241 | 9.0 | 23.0 | 0.04 | 0.08 | 0.08 | 89 | 1020.9 |
| 20260506034004 | 60 | 246 | 11.0 | 18.0 | 0.04 | 0.08 | 0.08 | 88 | 1021.0 |
| 20260506033504 | 60 | 247 | 12.0 | 20.0 | 0.04 | 0.08 | 0.08 | 87 | 1021.0 |
| 20260506033005 | 61 | 245 | 13.0 | 24.0 | 0.03 | 0.07 | 0.07 | 85 | 1021.1 |
| 20260506032505 | 62 | 247 | 13.0 | 24.0 | 0.02 | 0.06 | 0.06 | 82 | 1021.2 |
| 20260506032004 | 63 | 259 | 11.0 | 27.0 | 0.00 | 0.04 | 0.04 | 78 | 1021.1 |
| 20260506031504 | 64 | 268 | 11.0 | 27.0 | 0.00 | 0.04 | 0.04 | 76 | 1021.1 |
| 20260506031004 | 64 | 277 | 11.0 | 23.0 | 0.00 | 0.04 | 0.04 | 75 | 1021.0 |
| 20260506030504 | 64 | 277 | 11.0 | 23.0 | 0.00 | 0.04 | 0.04 | 74 | 1021.1 |
| 20260506030004 | 64 | 271 | 11.0 | 17.0 | 0.00 | 0.04 | 0.04 | 74 | 1021.2 |
| 20260506025504 | 64 | 270 | 10.0 | 18.0 | 0.00 | 0.04 | 0.04 | 74 | 1021.3 |
| 20260506025004 | 64 | 265 | 10.0 | 18.0 | 0.00 | 0.04 | 0.04 | 74 | 1021.5 |
| 20260506024504 | 64 | 267 | 9.0 | 17.0 | 0.00 | 0.04 | 0.04 | 73 | 1021.5 |
| 20260506024004 | 64 | 279 | 9.0 | 17.0 | 0.00 | 0.04 | 0.04 | 74 | 1021.6 |
| 20260506023504 | 64 | 286 | 10.0 | 14.0 | 0.00 | 0.04 | 0.04 | 74 | 1021.7 |
| 20260506023004 | 64 | 277 | 10.0 | 18.0 | 0.00 | 0.04 | 0.04 | 74 | 1021.8 |
| 20260506022504 | 64 | 261 | 10.0 | 18.0 | 0.00 | 0.04 | 0.04 | 74 | 1021.9 |
| 20260506022004 | 64 | 257 | 9.0 | 18.0 | 0.00 | 0.04 | 0.04 | 74 | 1022.0 |
| 20260506021504 | 64 | 260 | 10.0 | 18.0 | 0.00 | 0.04 | 0.04 | 75 | 1022.0 |
| 20260506021004 | 63 | 259 | 9.0 | 18.0 | 0.00 | 0.04 | 0.04 | 75 | 1022.0 |
| 20260506020504 | 64 | 261 | 9.0 | 17.0 | 0.00 | 0.04 | 0.04 | 75 | 1022.0 |
| 20260506020004 | 64 | 274 | 9.0 | 17.0 | 0.00 | 0.04 | 0.04 | 76 | 1022.1 |
| 20260506015504 | 63 | 285 | 9.0 | 14.0 | 0.00 | 0.04 | 0.04 | 78 | 1022.2 |
| 20260506015004 | 63 | 278 | 8.0 | 15.0 | 0.00 | 0.04 | 0.04 | 78 | 1022.2 |
| 20260506014504 | 63 | 273 | 8.0 | 15.0 | 0.00 | 0.04 | 0.04 | 78 | 1022.3 |
| 20260506014004 | 63 | 274 | 8.0 | 15.0 | 0.00 | 0.04 | 0.04 | 78 | 1022.3 |
| 20260506013504 | 63 | 285 | 7.0 | 15.0 | 0.00 | 0.04 | 0.04 | 79 | 1022.4 |
| 20260506013004 | 63 | 294 | 6.0 | 15.0 | 0.00 | 0.04 | 0.04 | 80 | 1022.4 |
| 20260506012525 | 63 | 313 | 6.0 | 11.0 | 0.00 | 0.04 | 0.04 | 82 | 1022.4 |
| 20260506012004 | 62 | 336 | 7.0 | 11.0 | 0.00 | 0.04 | 0.04 | 83 | 1022.3 |
| 20260506011504 | 62 | 339 | 7.0 | 13.0 | 0.00 | 0.04 | 0.04 | 82 | 1022.3 |
| 20260506011004 | 62 | 336 | 7.0 | 13.0 | 0.00 | 0.04 | 0.04 | 83 | 1022.4 |
| 20260506010525 | 62 | 343 | 7.0 | 11.0 | 0.00 | 0.04 | 0.04 | 84 | 1022.5 |
| 20260506010004 | 61 | 349 | 6.0 | 11.0 | 0.00 | 0.04 | 0.04 | 85 | 1022.5 |
| 20260506005504 | 60 | 345 | 6.0 | 11.0 | 0.00 | 0.04 | 0.04 | 86 | 1022.6 |
| 20260506005004 | 60 | 347 | 6.0 | 11.0 | 0.00 | 0.04 | 0.04 | 86 | 1022.6 |
| 20260506004504 | 60 | 350 | 5.0 | 10.0 | 0.00 | 0.04 | 0.04 | 86 | 1022.7 |
| 20260506004004 | 59 | 347 | 5.0 | 10.0 | 0.00 | 0.04 | 0.04 | 86 | 1022.8 |
| 20260506003504 | 59 | 346 | 5.0 | 9.0 | 0.00 | 0.04 | 0.04 | 86 | 1022.8 |
| 20260506003004 | 59 | 348 | 4.0 | 9.0 | 0.00 | 0.04 | 0.04 | 87 | 1022.7 |
| 20260506002525 | 58 | 349 | 4.0 | 9.0 | 0.02 | 0.04 | 0.04 | 87 | 1022.7 |
| 20260506002004 | 58 | 349 | 3.0 | 9.0 | 0.03 | 0.04 | 0.04 | 88 | 1022.7 |
| 20260506001525 | 58 | 358 | 3.0 | 9.0 | 0.04 | 0.04 | 0.04 | 88 | 1022.6 |
| 20260506001004 | 57 | 3 | 2.0 | 8.0 | 0.04 | 0.04 | 0.04 | 88 | 1022.7 |
| 20260506000504 | 58 | 8 | 1.0 | 6.0 | 0.04 | 0.04 | 0.04 | 88 | 1022.8 |
| 20260506000004 | 57 | 14 | 1.0 | 6.0 | 0.04 | 0.04 | 0.04 | 88 | 1022.7 |
| 20260505235504 | 57 | 46 | 2.0 | 4.0 | 0.04 | 0.04 | 0.04 | 88 | 1022.8 |
| 20260505235025 | 57 | 49 | 2.0 | 5.0 | 0.04 | 0.04 | 0.04 | 88 | 1022.8 |
| 20260505234504 | 57 | 37 | 1.0 | 6.0 | 0.04 | 0.04 | 0.04 | 88 | 1022.8 |
| 20260505234004 | 57 | 27 | 0.0 | 6.0 | 0.04 | 0.04 | 0.04 | 87 | 1022.7 |
| 20260505233504 | 57 | 309 | 1.0 | 3.0 | 0.04 | 0.04 | 0.04 | 87 | 1022.8 |
| 20260505233004 | 57 | 304 | 2.0 | 5.0 | 0.04 | 0.04 | 0.04 | 86 | 1022.8 |
| 20260505232504 | 57 | 322 | 3.0 | 6.0 | 0.02 | 0.02 | 0.02 | 85 | 1022.9 |
| 20260505232004 | 57 | 316 | 4.0 | 8.0 | 0.01 | 0.01 | 0.01 | 85 | 1022.8 |
| 20260505231504 | 57 | 326 | 5.0 | 10.0 | 0.00 | 0.00 | 0.00 | 83 | 1022.7 |
| 20260505231004 | 58 | 339 | 4.0 | 10.0 | 0.00 | 0.00 | 0.00 | 83 | 1022.7 |
| 20260505230504 | 58 | 338 | 5.0 | 8.0 | 0.00 | 0.00 | 0.00 | 83 | 1022.7 |
| 20260505230004 | 58 | 338 | 5.0 | 9.0 | 0.00 | 0.00 | 0.00 | 83 | 1022.5 |
| 20260505225504 | 58 | 341 | 5.0 | 9.0 | 0.00 | 0.00 | 0.00 | 84 | 1022.5 |
| 20260505225004 | 57 | 347 | 5.0 | 8.0 | 0.00 | 0.00 | 0.00 | 84 | 1022.4 |
| 20260505224504 | 57 | 348 | 5.0 | 9.0 | 0.00 | 0.00 | 0.00 | 84 | 1022.4 |
| 20260505224004 | 57 | 343 | 6.0 | 10.0 | 0.00 | 0.00 | 0.00 | 84 | 1022.4 |
| 20260505223504 | 57 | 342 | 6.0 | 10.0 | 0.00 | 0.00 | 0.00 | 84 | 1022.4 |
| 20260505223004 | 57 | 342 | 5.0 | 10.0 | 0.00 | 0.00 | 0.00 | 84 | 1022.4 |
| 20260505222503 | 57 | 348 | 4.0 | 10.0 | 0.00 | 0.00 | 0.00 | 84 | 1022.4 |
| 20260505222004 | 57 | 355 | 4.0 | 9.0 | 0.00 | 0.00 | 0.00 | 85 | 1022.3 |
| 20260505221503 | 57 | 358 | 4.0 | 9.0 | 0.00 | 0.00 | 0.00 | 85 | 1022.2 |
| 20260505221004 | 57 | 357 | 3.0 | 9.0 | 0.00 | 0.00 | 0.00 | 85 | 1022.1 |
| 20260505220525 | 57 | 354 | 3.0 | 9.0 | 0.00 | 0.00 | 0.00 | 85 | 1022.1 |
| 20260505220004 | 57 | 4 | 4.0 | 9.0 | 0.00 | 0.00 | 0.00 | 85 | 1022.1 |